User: anonymous   Login
Location: Unspecified
(0.0000°N, 0.0000°E)
Time: 22:45:17
(UTC+00:00)
Language:

DSCS III B-5 - Orbit

View from above orbital plane
View from above orbital plane
View from above satellite
View from above satellite

Ground track
Ground track

The orbit data is extracted from the following two-line orbital elements,

1 16117U 85092C   20048.02965530 -.00000086 +00000-0 +00000-0 0  9999
2 16117 015.2994 004.5361 0008347 023.8033 152.4811 00.98990505002838
Epoch (UTC): 17 February 2020 00:42:42
Eccentricity: 0.0008347
inclination: 15.2994°
perigee height: 36114 km
apogee height: 36185 km
right ascension of ascending node: 4.5361°
argument of perigee: 23.8033°
revolutions per day: 0.98990505
mean anomaly at epoch: 152.4811°
orbit number at epoch: 283

The dashed part of the orbit path shows where the satellite is in the earth's shadow,  

DLR